Regional Weather Roundup
Issued by NWS

Home | Current Version | Previous Version | Text Only | Print | Product List | Glossary Off
Versions: 1 2 3 4 5 6 7 8 9 10 11 12 13 14 15 16 17 18 19 20 21 22 23 24 25 26 27 28 29 30 31 32 33 34 35 36 37 38 39 40 41 42 43 44 45 46 47 48 49 50

000
ASUS45 KCYS 051210
RWRWY

WYOMING REGIONAL WEATHER ROUNDUP
NATIONAL WEATHER SERVICE CHEYENNE WY
500 AM MST THU MAR 05 2015

NOTE:  "FAIR" INDICATES FEW OR NO CLOUDS BELOW 12,000 FEET
WITH NO SIGNIFICANT WEATHER AND/OR OBSTRUCTIONS TO VISIBILITY.

WYZ001-051300-
YELLOWSTONE NATIONAL PARK

CITY           SKY/WX    TMP DP  RH WIND       PRES   REMARKS
LK YELLOWSTONE   N/A     -8 -12  83 VRB3      30.23R
6HR MIN TEMP:  -9; 6HR MAX TEMP:  -4;

W YELLOWSTONE  NOT AVBL

$$
WYZ002>013-054>058-071-098>099-051300-
NORTHERN WYOMING

CITY           SKY/WX    TMP DP  RH WIND       PRES   REMARKS
JACKSON        FAIR      -2  -6  84 NE3       30.29R
CODY           FAIR      12   3  67 N6        30.07R WCI   3
GREYBULL       FAIR       9   2  73 SE5       30.19R WCI   1
6HR MIN TEMP:   8; 6HR MAX TEMP:  13;

WORLAND        FAIR       9   0  67 S3        30.17S
6HR MIN TEMP:   7; 6HR MAX TEMP:  11;

SHERIDAN       FAIR       7  -2  66 CALM      30.09R
6HR MIN TEMP:  -2; 6HR MAX TEMP:   7;

BUFFALO        FAIR      19  -2  39 W3        30.06R
6HR MIN TEMP:  10; 6HR MAX TEMP:  24;

GILLETTE       FAIR      19   3  49 SW14      30.07R WCI   6
6HR MIN TEMP:  14; 6HR MAX TEMP:  21;

HULETT         FAIR      10   1  67 W6        30.08R WCI   1
NEWCASTLE      FAIR       3   0  85 N3        30.14S

$$
WYZ014>020-022>026-101>103-051300-
CENTRAL WYOMING

CITY           SKY/WX    TMP DP  RH WIND       PRES   REMARKS
BIG PINEY      FAIR       5  -2  72 E6        30.22R WCI  -6
6HR MIN TEMP:   4; 6HR MAX TEMP:  15;

PINEDALE       FAIR       7   0  72 NW14      30.21S WCI -10
DUBOIS         FAIR      16   5  62 NW13      30.14R WCI   2
LANDER         FAIR       0  -5  79 W5        30.11S WCI -10
6HR MIN TEMP:  -3; 6HR MAX TEMP:   4;

RIVERTON       FAIR      -1  -6  79 MISG      30.14R
6HR MIN TEMP:  -7; 6HR MAX TEMP:   5;

CASPER         FAIR      16   6  65 SW17      30.13R WCI   0
6HR MIN TEMP:  13; 6HR MAX TEMP:  16;

DOUGLAS        FAIR     -11 -17  75 CALM      30.15R
6HR MIN TEMP: -12; 6HR MAX TEMP:  -5;


$$
WYZ021-027>030-104>119-051300-
SOUTHERN WYOMING

CITY           SKY/WX    TMP DP  RH WIND       PRES   REMARKS
EVANSTON       FAIR      12   5  73 SW12      30.29S WCI  -2
6HR MIN TEMP:   8; 6HR MAX TEMP:  13;

FORT BRIDGER   FAIR      21  10  62 W13       30.29S WCI   8
ROCK SPRINGS   FAIR      16   6  65 SW18      30.21R WCI   0
6HR MIN TEMP:  13; 6HR MAX TEMP:  17;

DIXON          CLOUDY     8   3  80 CALM      30.31R
RAWLINS        FAIR      15   5  64 SW8G18    30.18R WCI   4
6HR MIN TEMP:  13; 6HR MAX TEMP:  16;

SARATOGA       FAIR      10   3  72 SE13      30.23R WCI  -5
LARAMIE        FAIR      14   3  61 SW22      30.12R WCI  -4
6HR MIN TEMP:   1; 6HR MAX TEMP:  16;

CHEYENNE       FAIR      21   3  45 W12       30.10R WCI   9
6HR MIN TEMP:   7; 6HR MAX TEMP:  22;

TORRINGTON     FAIR       4  -1  80 CALM      30.16S
6HR MIN TEMP:   1; 6HR MAX TEMP:  11;

PINE BLUFFS    FAIR       7   1  78 SW5       30.16R WCI  -2

$$


USA.gov is the U.S. government's official web portal to all federal, state and local government web resources and services.